Temperature
17 17 17 17 17 17 17 17 17 18 18 17 17 17 16 16 16 16 16 16 16 16 16 16 16 16 16 16 16 16 16 16 16 16 15 15 15 15
17 17 17 17 17 16 16 16 16 17 17 17 17 17 16 16 16 16 16 16 16 16 16 16 16 15 15 15 15 15 15 15 15 15 15 15 15 15
16 16 16 16 16 16 16 16 16 16 16 17 16 16 16 16 16 16 16 16 16 16 16 16 16 15 15 15 15 15 15 15 15 15 15 15 15 15
16 16 16 16 16 16 16 16 16 16 16 16 16 16 15 15 15 15 15 15 15 15 16 15 15 15 15 15 15 15 15 15 15 15 15 15 15 14
16 16 15 15 15 15 15 15 15 16 15 15 16 15 15 15 15 15 15 15 15 15 15 15 15 15 15 15 15 15 15 15 14 14 14 14 14 14
15 15 15 15 15 15 15 15 15 15 15 15 15 15 15 15 15 15 15 15 15 15 15 15 15 15 15 15 15 14 14 14 14 14 14 14 14 14
15 15 15 15 15 15 15 15 15 15 15 15 15 15 15 14 14 14 15 15 14 14 14 14 14 14 14 14 14 14 14 14 14 14 14 13 13 13
15 15 15 15 15 15 15 15 15 14 14 14 15 14 14 14 14 14 14 14 14 14 14 14 14 14 14 14 14 14 14 14 14 13 13 13 13 13
15 15 15 15 15 14 15 15 14 14 14 14 14 14 14 14 13 14 13 14 14 14 14 14 13 13 13 13 14 14 14 13 13 13 13 13 13 13
14 14 14 14 14 14 14 14 14 14 14 14 13 13 13 13 13 13 13 13 13 13 13 13 13 13 13 13 13 13 13 13 13 13 13 13 13 13
14 14 14 14 14 14 14 13 13 13 14 14 13 13 13 13 13 13 13 13 13 13 13 13 13 13 13 13 13 13 13 13 13 13 13 12 12 12
14 14 14 14 14 14 13 13 13 13 13 13 13 13 13 13 13 12 12 12 13 13 13 12 12 13 13 13 12 12 12 12 12 12 12 12 12 12
13 13 13 13 13 13 13 13 13 13 12 12 12 12 12 12 12 12 12 12 12 12 12 12 12 12 12 12 12 12 12 12 12 12 11 11 11 11
13 13 13 13 13 13 13 13 13 12 12 12 12 12 11 11 12 11 11 12 12 11 12 11 11 11 12 12 12 12 11 11 11 11 11 11 11 11
12 12 13 13 12 12 12 12 12 11 11 11 11 11 11 11 11 11 11 11 11 11 11 11 11 11 11 11 11 11 11 11 11 11 11 11 11 10
12 12 12 12 12 11 11 11 11 11 11 11 11 11 11 11 11 10 10 10 11 11 11 11 11 10 10 11 11 11 11 11 11 11 10 10 10 10
11 11 11 11 11 11 10 10 10 10 10 10 10 10 10 10 10 10 10 10 10 11 11 10 10 10 10 10 10 11 11 11 11 10 10 10 10 10
11 11 11 11 10 10 10 10 10 10 10 10 10 10 10 10 10 10 10 10 10 10 10 10 10 10 10 10 10 10 10 10 10 10 10 10 10 10
11 10 10 10 10 10 10 10 10 10 10 10 10 9 10 10 10 10 10 10 10 10 10 10 10 10 10 10 10 10 10 10 10 10 10 10 10 10
10 10 10 10 10 10 10 10 10 9 9 9 9 9 9 9 9 9 9 9 9 9 9 9 9 9 9 9 10 10 9 9 9 10 9 9 9 9
10 10 9 9 9 9 9 9 9 9 9 9 9 9 9 9 9 9 9 9 9 9 9 9 9 9 9 9 9 10 10 9 9 9 9 9 9 9
9 9 9 9 9 9 9 9 9 9 8 8 8 8 8 8 8 8 8 8 8 8 8 9 8 8 9 9 9 9 9 9 9 9 9 9 9 9
9 9 9 8 8 8 8 8 8 8 8 8 8 8 8 8 8 8 8 8 8 8 8 8 8 8 8 9 9 9 9 9 9 9 9 9 8 8
Wind_Speed
5 5 5 4 4 4 5 5 6 6 5 4 4 2 3 3 3 5 5 5 7 7 8 8 8 8 9 9 9 10 10 10 10 11 11 12 13 13
4 4 5 4 4 4 5 5 5 6 5 3 3 2 2 3 4 6 6 6 8 8 8 8 8 8 8 8 8 9 10 10 10 10 11 11 12 13
5 5 5 5 5 4 4 5 5 5 6 5 4 2 3 5 3 5 6 6 6 9 9 9 8 8 8 8 9 9 9 10 10 10 10 11 11 12
5 5 5 5 5 5 5 5 5 5 6 6 5 4 4 4 4 5 5 5 5 7 10 9 9 9 9 9 9 10 10 10 10 10 10 11 11 12
5 6 6 6 6 5 6 6 5 5 5 6 6 4 4 4 4 5 5 5 6 5 9 9 9 8 8 8 9 9 10 10 11 10 10 10 11 11
6 6 6 7 7 6 6 6 6 6 6 6 6 5 4 4 4 4 4 4 5 4 4 5 7 9 8 7 7 7 8 9 9 9 9 9 9 9
6 6 6 5 5 5 6 5 6 6 6 6 6 6 5 4 4 5 5 4 4 4 4 4 4 5 6 6 7 7 7 7 8 8 8 8 8 7
6 6 5 5 4 4 4 5 6 7 7 6 6 6 6 5 4 5 5 5 4 3 4 4 4 4 3 3 3 5 6 7 7 7 7 7 8 8
6 6 5 4 4 4 4 6 5 6 7 7 7 7 7 6 6 7 6 6 5 4 4 5 4 4 4 2 4 6 6 6 6 6 6 7 7 8
6 5 5 4 4 4 4 4 5 5 6 6 6 7 6 5 6 7 6 6 6 4 4 5 4 4 3 3 6 7 7 7 7 7 7 6 7 8
6 5 5 4 1 2 4 4 5 5 3 3 3 4 3 4 5 5 6 6 5 4 4 5 4 4 4 4 4 9 9 9 8 8 7 7 7 7
4 3 2 2 0 1 4 4 5 5 4 3 4 5 5 5 6 6 6 6 6 5 3 4 4 4 4 3 3 3 6 8 10 10 9 8 7 5
3 2 1 3 2 1 3 3 4 4 4 4 4 4 4 4 4 4 5 6 6 5 2 3 4 4 4 4 3 3 3 3 5 7 9 10 9 7
3 2 1 4 2 2 2 1 3 4 4 3 3 3 3 3 3 4 4 5 6 6 5 4 5 5 5 5 4 3 4 4 4 4 4 7 10 11
1 3 2 3 2 2 2 3 4 3 3 3 3 3 3 3 3 3 4 4 6 6 5 5 6 5 6 6 5 4 4 4 4 4 4 4 5 5
2 3 5 4 3 1 1 2 3 2 3 3 4 3 3 3 4 4 4 4 4 4 4 5 6 6 7 7 6 5 4 4 4 5 4 4 5 5
2 2 2 1 1 1 1 2 2 2 2 3 3 3 3 4 4 3 3 4 5 5 4 4 5 6 7 7 6 6 5 4 4 4 5 5 5 6
2 2 1 1 1 1 2 2 2 2 3 3 3 3 4 3 3 4 4 4 5 5 5 4 4 4 5 5 5 6 5 4 4 4 5 5 6 5
2 1 1 1 2 2 2 2 2 2 3 3 4 4 4 4 4 4 4 4 4 5 5 5 4 4 6 6 4 5 6 5 5 4 5 6 6 6
3 2 2 2 2 2 2 3 3 3 3 3 4 4 4 4 4 4 5 5 5 5 6 5 5 5 6 7 6 5 6 6 5 5 5 5 5 3
3 2 2 2 2 2 2 3 3 3 3 4 4 4 4 4 4 4 5 5 5 5 6 6 5 6 7 6 6 5 4 5 5 6 6 6 5 5
2 1 1 2 2 3 3 3 3 3 3 4 4 4 5 5 5 5 5 5 5 5 6 5 5 5 6 6 7 6 5 4 4 6 7 6 5 6
1 1 1 2 2 3 3 4 4 4 4 4 4 5 5 5 5 5 5 5 5 5 5 6 5 5 6 6 6 6 5 6 5 4 4 5 7 7
Wind_Direction
236 229 243 250 255 258 257 260 266 267 261 237 240 234 245 242 204 226 235 199 205 215 223 228 230 231 235 237 238 238 236 236 236 236 238 235 233 233
255 259 254 256 255 250 249 252 257 263 268 263 251 255 269 266 213 234 238 200 202 213 221 226 226 225 232 236 236 235 236 237 235 234 236 237 235 234
248 250 255 262 260 253 249 249 251 256 258 263 263 254 250 268 256 245 244 235 218 201 211 219 223 227 230 232 234 234 233 234 236 236 238 241 240 237
250 257 260 258 258 260 257 256 256 251 251 261 264 257 246 254 256 255 253 243 244 190 200 213 222 228 232 234 236 235 234 233 235 236 237 240 240 239
248 252 256 259 261 260 257 257 256 250 244 252 256 260 254 253 254 253 256 264 259 211 198 208 218 224 227 228 231 234 234 234 235 235 237 240 240 238
252 258 261 259 259 258 254 255 258 255 248 250 252 252 250 252 255 256 254 247 260 256 225 214 205 207 208 213 223 230 233 233 233 233 234 236 237 234
249 255 260 267 287 275 266 260 258 255 252 251 253 252 251 252 253 256 259 256 248 253 251 237 220 224 216 214 224 231 232 231 231 229 230 229 227 226
252 255 253 241 239 243 257 272 277 263 264 263 259 260 259 252 261 264 264 258 255 243 254 252 240 241 242 236 204 205 217 221 222 221 219 221 221 218
251 253 259 258 248 251 231 225 245 253 254 262 263 266 264 261 262 260 260 260 262 265 250 254 246 245 249 219 157 181 202 211 212 211 214 219 221 219
249 246 249 253 259 261 254 249 248 247 245 247 254 263 270 273 263 262 261 254 253 251 245 256 247 251 254 232 165 177 194 201 204 205 207 213 221 218
245 242 243 247 310 292 252 252 255 253 234 227 258 266 288 280 273 261 256 255 260 252 230 251 255 257 256 242 188 183 194 197 199 203 207 209 211 210
239 231 210 218 226 266 240 248 255 263 262 249 232 231 237 232 231 247 261 262 265 258 225 242 254 257 257 244 236 213 204 198 198 200 201 201 205 219
235 231 193 124 133 228 255 257 269 276 263 259 246 240 237 239 238 242 261 271 273 268 252 237 259 253 257 265 263 248 235 228 215 211 205 202 204 213
231 230 149 123 145 214 245 279 273 264 256 253 257 259 258 258 260 258 256 267 276 274 274 258 262 268 264 264 270 256 242 238 230 224 224 203 210 213
204 86 112 155 176 201 200 229 236 250 258 261 264 269 277 282 276 260 250 252 256 258 258 255 256 259 262 265 260 261 261 255 238 233 226 220 222 220
154 141 164 189 206 170 210 234 254 270 274 276 277 278 280 276 272 273 264 262 263 259 244 247 253 258 260 263 262 257 254 251 244 239 237 235 230 226
145 190 186 177 191 210 244 264 267 267 273 279 280 283 280 281 279 278 277 272 270 273 272 263 254 252 253 258 262 260 255 254 247 237 235 239 235 228
217 208 221 256 261 265 277 277 278 282 281 279 277 276 276 279 283 282 282 282 284 287 286 285 283 278 270 259 250 258 262 265 262 242 240 242 242 235
202 210 231 254 271 274 280 289 292 291 290 288 285 280 275 275 276 278 281 285 286 291 293 289 280 277 275 276 264 245 266 270 269 265 251 249 252 241
215 226 239 252 269 286 293 300 300 297 293 295 294 289 284 280 277 279 279 285 285 283 284 286 284 283 278 279 282 274 249 258 264 264 265 267 268 246
218 228 252 270 282 290 300 303 302 300 305 300 301 298 290 283 283 284 286 284 280 281 284 289 298 289 280 268 266 265 259 233 248 266 264 264 267 256
225 236 266 299 302 302 299 297 298 299 300 296 305 306 299 291 288 286 286 285 282 283 290 295 298 289 282 276 274 277 281 274 253 243 246 263 272 266
216 246 268 281 283 286 294 296 294 295 297 297 300 300 298 296 291 285 285 287 291 290 290 293 292 286 287 280 276 280 286 286 279 273 258 234 237 251
Height
1546 1545 1545 1545 1545 1545 1545 1545 1546 1544 1544 1544 1544 1543 1543 1542 1541 1540 1540 1539 1538 1538 1538 1537 1538 1538 1538 1538 1539 1539 1540 1540 1540 1540 1540 1540 1541 1542
1543 1542 1542 1543 1542 1542 1542 1542 1542 1542 1541 1541 1541 1541 1540 1539 1538 1538 1537 1536 1535 1535 1534 1534 1534 1534 1534 1534 1535 1535 1535 1536 1536 1536 1536 1536 1537 1537
1540 1540 1539 1539 1539 1539 1539 1539 1538 1538 1538 1538 1538 1537 1536 1536 1535 1535 1534 1534 1533 1532 1531 1531 1531 1531 1530 1530 1531 1531 1531 1532 1532 1532 1532 1532 1533 1533
1537 1537 1537 1536 1536 1535 1535 1535 1535 1535 1535 1534 1534 1534 1533 1533 1532 1531 1532 1531 1530 1529 1528 1528 1528 1527 1527 1527 1527 1527 1527 1527 1528 1528 1528 1528 1528 1529
1534 1534 1533 1533 1532 1532 1531 1532 1532 1532 1531 1531 1531 1530 1530 1529 1529 1528 1528 1527 1527 1526 1525 1524 1524 1524 1523 1523 1523 1523 1523 1523 1523 1524 1524 1524 1524 1524
1531 1531 1530 1529 1529 1528 1528 1528 1528 1528 1528 1528 1527 1527 1526 1526 1525 1525 1525 1524 1524 1523 1522 1521 1521 1520 1520 1519 1519 1519 1519 1519 1519 1519 1520 1520 1520 1520
1527 1526 1526 1525 1524 1524 1524 1524 1524 1524 1524 1524 1524 1523 1523 1522 1522 1521 1521 1521 1520 1520 1519 1518 1518 1517 1516 1515 1515 1515 1515 1515 1515 1515 1515 1516 1516 1516
1523 1522 1521 1520 1519 1519 1519 1519 1520 1520 1521 1521 1520 1520 1519 1518 1518 1518 1518 1518 1517 1516 1516 1515 1515 1514 1513 1512 1511 1511 1511 1511 1511 1511 1511 1512 1512 1512
1519 1518 1518 1517 1516 1516 1515 1515 1515 1515 1516 1516 1516 1515 1515 1514 1514 1514 1513 1513 1512 1512 1512 1511 1511 1510 1509 1508 1507 1507 1507 1507 1507 1507 1507 1508 1508 1508
1515 1514 1513 1513 1513 1512 1512 1512 1511 1511 1511 1511 1511 1510 1510 1510 1509 1510 1509 1509 1508 1508 1508 1508 1507 1506 1506 1505 1504 1503 1503 1503 1503 1503 1503 1504 1504 1504
1511 1511 1510 1509 1509 1508 1508 1508 1507 1506 1507 1506 1506 1506 1505 1505 1505 1506 1506 1505 1505 1504 1504 1504 1503 1503 1503 1502 1501 1500 1500 1500 1500 1499 1499 1500 1500 1500
1508 1507 1506 1506 1505 1505 1505 1504 1503 1503 1503 1503 1502 1501 1501 1501 1501 1501 1501 1502 1501 1501 1500 1500 1499 1500 1499 1498 1498 1497 1496 1496 1496 1496 1496 1496 1496 1497
1504 1504 1503 1502 1502 1501 1501 1501 1500 1500 1499 1499 1499 1498 1498 1497 1497 1497 1497 1497 1497 1497 1496 1495 1495 1495 1496 1495 1494 1494 1493 1493 1492 1492 1492 1492 1493 1493
1500 1501 1500 1499 1499 1499 1498 1498 1497 1497 1497 1497 1497 1496 1495 1494 1493 1493 1492 1492 1492 1492 1491 1491 1491 1491 1491 1491 1490 1490 1490 1489 1489 1489 1489 1489 1489 1489
1497 1497 1497 1497 1496 1496 1496 1495 1494 1495 1495 1494 1494 1493 1492 1491 1490 1489 1488 1488 1488 1488 1487 1486 1486 1486 1487 1486 1486 1486 1486 1485 1485 1485 1485 1485 1485 1486
1493 1493 1494 1494 1494 1494 1493 1493 1492 1492 1492 1491 1491 1490 1489 1488 1487 1486 1486 1485 1485 1485 1484 1482 1482 1482 1482 1482 1482 1481 1481 1481 1481 1481 1481 1481 1481 1481
1491 1492 1492 1492 1492 1492 1491 1491 1490 1489 1489 1488 1488 1487 1486 1485 1485 1484 1483 1483 1482 1481 1480 1480 1479 1478 1477 1478 1477 1477 1477 1477 1477 1477 1477 1477 1477 1477
1490 1491 1491 1491 1490 1490 1489 1489 1488 1487 1486 1486 1485 1484 1483 1482 1482 1481 1480 1480 1479 1478 1477 1477 1476 1475 1475 1473 1473 1473 1473 1473 1473 1472 1472 1473 1473 1473
1488 1489 1489 1488 1488 1488 1487 1486 1486 1485 1483 1483 1482 1481 1480 1479 1479 1478 1477 1476 1475 1474 1474 1473 1473 1472 1471 1470 1469 1469 1469 1469 1469 1468 1468 1468 1468 1468
1486 1486 1487 1487 1486 1486 1485 1484 1483 1482 1481 1480 1479 1478 1477 1476 1475 1474 1474 1472 1471 1471 1470 1470 1469 1468 1467 1467 1466 1465 1465 1465 1465 1464 1464 1464 1464 1464
1483 1484 1485 1485 1484 1483 1482 1481 1481 1479 1478 1477 1476 1475 1474 1473 1472 1471 1470 1469 1468 1467 1466 1466 1465 1464 1463 1463 1462 1461 1461 1461 1460 1460 1460 1460 1460 1459
1481 1482 1482 1482 1482 1481 1480 1479 1478 1477 1475 1474 1473 1472 1471 1470 1469 1468 1467 1466 1465 1464 1463 1462 1461 1460 1460 1459 1458 1457 1457 1456 1456 1455 1455 1455 1455 1454
1478 1479 1479 1479 1478 1478 1477 1476 1475 1474 1473 1471 1470 1469 1468 1467 1466 1465 1464 1463 1461 1460 1459 1458 1457 1456 1455 1454 1454 1453 1452 1452 1452 1451 1451 1450 1451 1450